#timestamp,LO_Frequency,Hit,StdDev 
1456113615.7,286047004.3,N
1456113635.5,286047003.0,N
1456113655.3,286047001.6,N
1456113675.2,286046998.1,N
1456113695.9,286047000.7,N
1456113715.7,286046998.2,N
1456113735.5,286046998.5,N
1456113755.4,286046998.0,N
1456113775.2,286046998.4,N
1456113795.0,286047003.6,N
1456113795.9,286047003.6,N
1456113815.8,286047004.4,N
1456113835.6,286047002.1,N
1456113855.4,286047001.8,N
1456113875.3,286047005.8,N
1456113895.1,286047004.4,N
1456113915.8,286047009.1,N
1456113935.7,286047010.7,N
1456113955.5,286047007.3,N
1456113975.3,286047004.5,N
1456113995.2,286047004.6,N
1456114015.9,286047006.3,N
1456114035.7,286047005.8,N
1456114055.6,286047005.7,N
1456114075.4,286047005.6,N
1456114095.2,286047007.2,N
1456114115.0,286047008.4,N
1456114115.9,286047008.4,N
1456114135.8,286047010.0,N
1456114155.6,286047011.7,Y
1456114175.4,286047004.9,P
1456114195.3,286047009.1,P
1456114215.1,286047008.6,P
1456114235.8,286047006.8,Y
1456114255.7,286047000.3,P
1456114275.5,286047001.1,N
1456114295.3,286046998.6,N
1456114315.2,286047000.2,N
1456114335.9,286046999.3,N
1456114355.7,286046998.9,N
1456114375.6,286046998.5,N
1456114395.4,286047000.4,N
1456114415.2,286046998.5,N
1456114435.1,286047001.1,N
1456114436.0,286047001.1,N
1456114455.8,286047000.9,N
1456114475.6,286046995.4,N
1456114495.5,286046993.3,N
1456114515.3,286046996.9,N
1456114535.1,286046991.8,N
1456114555.8,286046990.6,N
1456114575.7,286046991.9,N
1456114595.5,286046994.7,N
1456114615.3,286046993.6,N
1456114635.2,286046991.8,N
1456114655.0,286046992.8,N
1456114655.9,286046992.8,N
1456114675.7,286046992.0,N
1456114695.6,286046993.8,N
1456114715.4,286046991.7,N
1456114735.2,286046994.5,N
1456114755.1,286046990.1,N
1456114756.0,286046990.1,N
1456114775.8,286046992.2,N
1456114795.6,286046989.3,N
1456114815.5,286046989.2,N
1456114835.3,286046985.1,Y
1456114855.1,286046989.1,P
1456114875.9,286046991.2,P
1456114895.7,286046990.2,P
1456114915.5,286046988.8,Y
1456114935.4,286046998.8,P
1456114955.2,286046998.8,N
1456114975.0,286046998.4,N
1456114975.9,286046998.4,N
1456114995.8,286046998.7,N
1456115015.6,286046999.2,N
1456115035.4,286047002.3,N
1456115055.3,286047000.7,N
1456115075.1,286046999.3,N
1456115076.0,286046999.3,N
1456115095.8,286047001.6,N
1456115115.7,286047005.5,N
1456115135.5,286047009.0,N
1456115155.3,286047008.9,N
1456115175.1,286047004.5,N
1456115195.9,286047009.9,N
1456115215.7,286047013.3,N
1456115235.5,286047012.2,N
1456115255.4,286047012.1,N
1456115275.2,286047008.3,N
1456115295.0,286047012.3,N
1456115295.9,286047012.3,N
1456115315.8,286047010.0,N
1456115335.6,286047012.2,N
1456115355.4,286047008.4,N
1456115375.3,286047008.0,N
1456115395.1,286047011.7,N
1456115396.0,286047011.7,N
1456115415.8,286047010.8,N
1456115435.7,286047007.9,N
1456115455.5,286047007.7,N
1456115475.3,286047006.9,N
1456115495.1,286047003.0,N
1456115515.9,286047000.5,N
1456115535.7,286047000.2,N
1456115555.5,286046996.5,N
1456115575.4,286046998.3,N
1456115595.2,286047002.5,N
1456115615.0,286046997.4,N
1456115615.9,286046997.4,N
1456115635.8,286046995.5,N
1456115655.6,286046998.9,N
1456115675.4,286047001.4,N
1456115695.3,286047000.0,N
1456115715.1,286046996.5,N
1456115716.0,286046996.5,N
1456115735.8,286046998.1,N
1456115755.7,286046998.9,N
1456115775.5,286046998.4,N
1456115795.3,286047001.2,N
1456115815.2,286047004.4,N
1456115835.9,286046998.1,N
1456115855.7,286047001.1,N
1456115875.5,286047001.5,N
1456115895.4,286047000.5,N
1456115915.2,286047003.4,N
1456115935.0,286047004.3,N
1456115935.9,286047004.3,N
1456115955.8,286047002.1,N
1456115975.6,286047004.6,N
1456115995.4,286047012.3,Y
1456116015.3,286047008.9,P
1456116035.1,286047008.0,N
1456116055.8,286047008.2,N
1456116075.7,286047008.8,N
1456116095.5,286047008.3,N
1456116115.3,286047008.3,N
1456116135.2,286047006.4,N
1456116155.9,286047006.3,N
1456116175.7,286047007.8,Y
1456116195.6,286047000.5,P
1456116215.4,286046999.8,N
1456116235.2,286047005.7,N
1456116255.1,286047005.0,N
1456116256.0,286047005.0,N
1456116275.8,286047006.1,N
1456116295.6,286047005.2,N
1456116315.5,286047006.1,N
1456116335.3,286047006.6,N
1456116355.1,286047004.6,N
1456116375.9,286047003.8,N
1456116395.7,286047005.7,N
1456116415.5,286047005.0,N
1456116435.3,286047003.1,N
1456116455.2,286047005.3,N
1456116475.0,286047005.0,N
1456116475.9,286047005.0,N
1456116495.7,286047004.3,N
1456116515.6,286047004.9,N
1456116535.4,286047005.2,N
1456116555.2,286047008.8,Y
1456116575.1,286047005.4,P
1456116576.0,286047005.4,P
1456116595.8,286047005.6,P
1456116615.6,286047005.0,Y
1456116635.5,286047000.4,P
1456116655.3,286047005.5,N
1456116675.1,286047003.7,N
1456116695.9,286046996.7,N
1456116715.7,286046995.7,N
1456116735.5,286046992.0,N
1456116755.4,286046992.6,N
1456116775.2,286046992.0,N
1456116795.0,286046994.7,N
1456116795.9,286046994.7,N
1456116815.8,286046993.5,N
1456116835.6,286046995.7,N
1456116855.4,286046996.9,N
1456116875.3,286047000.6,N
1456116895.1,286047003.3,N
1456116896.0,286047003.3,N
1456116915.8,286047003.8,N
1456116935.6,286047004.2,N
1456116955.5,286047001.6,N
1456116975.3,286046996.9,N
1456116995.1,286047001.8,N
1456117015.9,286047004.1,N
1456117035.7,286047000.3,N
1456117055.5,286046997.8,N
1456117075.4,286046995.2,N
1456117095.2,286046994.9,N
1456117115.0,286046995.3,N
1456117115.9,286046995.3,N
1456117135.8,286046997.4,N
1456117155.6,286046995.2,N
1456117175.4,286046998.7,N
1456117195.3,286046995.6,N
